Location: Sternwarte ZA, Rosenfeld-Brittheim
(48.2889°N, 8.6789°E)
Time: 21:33:25
(UTC+02:00)

ISS - Visible Passes

Search period start: 22 September 2018 00:00
Search period end: 02 October 2018 00:00
Orbit: 403 x 408 km, 51.6° (Epoch: 23 September)

Date Brightness Start Highest point End Pass type
(mag) Time Alt. Az. Time Alt. Az. Time Alt. Az.
22 Sep -2.1 20:26:30 10° S 20:28:38 16° SE 20:28:53 16° SE visible
22 Sep -0.8 22:01:27 10° WSW 22:01:36 11° WSW 22:01:36 11° WSW visible
23 Sep -3.3 21:09:41 10° SW 21:12:21 44° S 21:12:21 44° S visible
24 Sep -2.9 20:18:08 10° SSW 20:21:07 32° SE 20:22:54 19° E visible
24 Sep -1.5 21:54:12 10° W 21:55:36 23° W 21:55:36 23° W visible
25 Sep -3.9 21:02:15 10° WSW 21:05:32 89° NW 21:05:59 65° ENE visible
26 Sep -3.7 20:10:24 10° SW 20:13:40 61° SSE 20:16:15 15° ENE visible
26 Sep -1.8 21:47:02 10° W 21:48:56 29° WNW 21:48:56 29° WNW visible
27 Sep -3.4 20:54:58 10° W 20:58:15 59° NNW 20:59:06 41° NE visible
28 Sep -3.7 20:02:58 10° WSW 20:06:15 78° NNW 20:09:12 13° ENE visible
28 Sep -1.9 21:39:49 10° WNW 21:41:52 30° NW 21:41:52 30° NW visible
29 Sep -3.0 20:47:45 10° W 20:50:57 46° N 20:51:54 34° NE visible
29 Sep -0.2 22:24:31 10° WNW 22:24:34 10° WNW 22:24:34 10° WNW visible
30 Sep -3.3 19:55:39 10° W 19:58:54 54° NNW 20:01:54 12° ENE visible
30 Sep -2.0 21:32:31 10° WNW 21:34:34 32° NW 21:34:34 32° NW visible
01 Oct -3.0 20:40:27 10° WNW 20:43:39 44° N 20:44:32 34° NE visible
01 Oct -0.3 22:17:04 10° WNW 22:17:12 11° WNW 22:17:12 11° WNW visible
